User: anonymous   Login
Location: Albany
(35.0000°S, 118.0000°E)
Time: 10:05:39
(UTC-04:00)
Language:

Cosmos 1758 Rocket - Orbit

View from above orbital plane
View from above orbital plane
View from above satellite
View from above satellite

Ground track
Ground track

The orbit data is extracted from the following two-line orbital elements,

1 16792U 86046B   17116.92193880 +.00000145 +00000-0 +14708-4 0  9999
2 16792 082.4829 250.6336 0025783 101.4540 009.2172 14.83128288646197
Epoch (UTC): 26 April 2017 22:07:35
Eccentricity: 0.0025783
inclination: 82.4829°
perigee height: 601 km
apogee height: 637 km
right ascension of ascending node: 250.6336°
argument of perigee: 101.4540°
revolutions per day: 14.83128288
mean anomaly at epoch: 9.2172°
orbit number at epoch: 64619

The dashed part of the orbit path shows where the satellite is in the earth's shadow,  

DLR